SCP
0 -0 -0 -0 -0 -0 -0 -0 -0 -0 -0 -0 -0 -0 -0 -0 -0 -0 -0 -0 -0 -0 -0 -0 -0 -0 -0 0 0 0 -0 0 0 0 0 0 0 0 0 0 0 0 0
-0 -0 -0 -0 -0 -0 -0 -0 -0 -0 -0 -0 -0 -0 -0 -0 -0 -0 -0 -0 -0 -0 -0 -0 -0 -0 -0 0 0 -0 -0 -0 0 0 0 0 0 0 0 0 0 0 0
-0 -0 -0 -0 -0 -0 -0 -0 -0 -0 -0 -0 -0 -0 -0 -0 -0 -0 -0 -0 -0 -0 -0 -0 -0 -0 0 0 -0 -0 -0 -0 -0 -0 -0 0 0 0 -0 -0 0 0 0
-0 0 -0 -0 -0 -0 -0 -0 -0 -0 -0 -0 -0 -0 -0 -0 -0 -0 -0 -0 -0 -0 -0 -0 -0 -0 -0 0 -0 -0 -0 -0 -0 -0 0 0 0 0 -0 0 0 0 0
-0 0 0 -0 -0 0 -0 0 0 -0 -0 -0 -0 -0 -0 -0 -0 -0 -0 -0 -0 -0 -0 -0 -0 -0 0 0 0 -0 -0 -0 -0 -0 0 0 0 0 0 0 0 0 0
0 0 0 -0 -0 0 -0 0 0 0 0 0 -0 -0 -0 -0 0 -0 -0 -0 -0 -0 -0 -0 -0 0 0 0 0 0 0 -0 -0 0 0 0 0 0 0 0 0 0 0
0 0 0 0 0 0 0 0 0 0 0 0 0 -0 -0 -0 -0 -0 -0 -0 -0 -0 -0 0 0 0 0 0 0 0 0 0 0 0 0 0 0 0 1 0 0 0 0
1 1 0 0 0 0 -0 0 0 0 0 0 0 -0 -0 -0 -0 -0 -0 0 -0 -0 0 0 0 0 0 0 0 0 0 0 0 0 0 0 0 0 0 0 0 0 0
1 1 1 0 0 0 0 0 0 0 0 0 0 0 -0 -0 -0 -0 -0 0 0 0 0 0 0 0 0 0 0 0 0 0 0 0 0 0 0 1 1 0 0 0 0
1 1 1 1 1 1 1 0 0 -0 -0 -0 0 -0 -0 -0 -0 -0 -0 0 0 0 0 0 0 0 0 0 0 0 0 0 0 0 0 0 1 1 1 0 0 0 0
1 1 1 1 1 1 1 0 0 -0 -0 -0 -0 -0 -0 0 0 0 0 0 0 0 0 0 0 0 0 0 0 0 0 0 0 0 0 0 1 1 1 0 0 0 0
1 1 1 1 1 1 1 0 0 0 0 0 0 0 -0 -0 0 -0 0 0 0 0 0 0 0 0 0 0 0 0 0 0 0 0 0 1 2 1 1 1 1 1 0
1 1 0 0 0 0 1 1 0 0 0 0 0 -0 -0 -0 -0 -0 0 0 0 0 0 0 0 0 0 0 0 0 0 0 0 0 0 1 0 0 1 1 1 1 1
1 0 0 0 0 0 0 0 0 0 0 0 -0 -0 -0 -0 -0 0 0 0 0 0 0 0 0 0 0 0 0 0 0 0 0 0 0 0 1 1 1 1 1 1 1
2 1 0 0 0 0 0 0 0 0 0 0 0 -0 -0 -0 0 0 0 0 0 0 0 0 0 0 0 0 0 0 1 1 1 0 0 0 1 1 1 1 1 1 0
4 1 0 0 1 0 0 0 0 0 0 0 0 -0 -0 -0 0 0 0 0 0 0 0 0 0 0 0 0 1 1 1 0 0 0 0 0 1 1 2 2 1 0 0
5 3 2 1 0 0 0 0 0 0 0 0 0 -0 -0 0 0 0 -0 -0 0 0 0 0 0 1 1 1 0 0 0 0 0 0 0 0 0 0 1 0 0 0 0
7 4 3 3 1 0 0 0 0 0 0 0 0 -0 0 0 0 0 -0 -0 -0 -0 0 1 1 0 0 0 0 0 0 0 0 0 0 0 0 0 0 0 0 0 0
1 6 7 2 3 0 0 0 1 0 0 0 0 0 0 0 -0 -0 -0 -0 0 1 1 0 0 0 0 0 0 0 0 0 0 1 0 0 0 0 0 0 0 0 0
1 5 2 2 1 1 1 1 1 1 0 1 0 0 0 0 -0 0 0 1 1 0 0 0 0 0 0 0 0 0 0 0 0 0 0 0 0 0 0 0 0 0 0
1 5 0 1 3 4 2 1 2 1 1 1 1 0 0 0 0 0 1 1 0 0 0 0 0 0 0 0 0 0 0 0 0 -0 0 0 0 0 0 0 0 0 0
3 3 4 4 2 3 3 3 2 1 1 2 1 1 0 0 0 0 0 0 0 0 0 0 0 0 0 0 0 0 0 0 0 0 0 0 0 0 0 0 0 0 0
4 4 4 4 4 5 2 5 2 1 3 2 2 1 1 1 1 0 1 0 0 0 0 0 0 0 0 0 0 0 0 0 0 0 0 0 0 0 0 0 0 0 0
2 7 5 5 4 4 2 2 2 2 2 2 2 1 1 0 0 0 0 0 0 0 0 0 0 0 0 0 0 0 0 0 0 0 0 0 0 0 0 0 0 0 0
2 10 9 6 6 4 2 4 3 2 2 3 1 0 0 0 0 0 0 0 0 0 0 0 0 0 0 0 0 0 0 0 0 0 0 0 0 0 0 0 0 -0 -0
2 13 10 6 6 5 3 3 2 1 2 3 1 0 0 0 0 0 0 0 0 0 0 0 0 0 0 0 0 0 0 0 0 0 0 0 0 0 0 0 0 0 -0
Wind_Speed_500mb
47 55 55 51 52 49 44 38 35 33 29 27 28 29 31 36 38 38 37 36 34 34 35 33 28 23 16 11 9 6 2 3 7 8 9 11 13 15 14 10 10 18 10
47 60 55 49 49 46 44 39 35 33 29 26 26 28 31 35 37 37 36 34 34 34 32 28 24 20 16 14 12 9 9 10 11 12 13 17 23 27 26 23 22 22 16
45 60 53 50 48 44 42 38 34 32 29 27 24 25 27 33 35 35 35 33 32 30 25 21 16 13 13 12 10 9 9 12 17 26 24 12 11 18 23 30 31 26 21
49 60 56 51 48 44 41 37 33 30 28 25 23 22 24 28 32 34 32 30 27 24 20 15 12 11 10 10 9 8 9 11 16 19 20 20 12 12 27 32 32 26 22
55 59 56 52 47 44 40 37 33 31 29 26 22 19 20 24 27 31 29 25 22 19 17 14 11 7 6 6 5 5 7 10 16 17 11 13 7 16 32 28 33 32 28
58 59 56 51 46 43 41 36 33 31 29 26 23 19 19 22 25 26 24 22 19 16 14 10 7 6 4 4 3 2 1 6 16 15 7 13 18 29 23 27 33 37 38
61 61 56 51 46 43 39 36 31 30 28 25 22 20 20 21 22 22 21 19 15 12 9 7 4 1 3 4 6 6 3 3 12 9 4 11 11 18 22 24 32 42 47
56 62 59 53 49 44 41 37 33 30 28 26 22 21 21 21 22 21 18 15 13 9 6 4 1 4 7 9 10 10 9 6 5 10 4 11 14 23 21 28 40 49 54
47 65 61 54 51 48 43 38 34 30 27 27 24 22 21 21 22 21 18 14 10 6 3 3 6 9 9 10 11 13 15 12 8 6 7 12 14 17 26 29 41 46 49
38 57 63 56 53 52 46 39 34 31 27 25 24 22 21 22 23 21 18 13 9 5 4 7 7 7 8 7 9 20 21 17 8 3 3 12 19 22 25 34 42 42 45
43 44 58 59 55 53 49 44 38 33 29 28 26 25 23 22 23 21 17 13 7 5 6 5 6 5 5 3 9 13 14 17 15 11 12 18 18 17 31 38 42 43 52
58 48 50 65 60 56 53 46 41 37 32 29 27 25 25 23 21 20 14 10 6 5 5 3 4 4 5 8 2 4 6 8 10 20 27 24 25 20 33 39 41 46 52
56 45 51 68 65 62 55 51 48 40 34 31 28 28 28 26 23 22 12 2 6 6 3 6 7 7 2 7 8 2 3 7 18 19 27 30 22 34 40 34 41 46 47
59 50 41 67 68 63 56 52 43 42 35 33 30 32 28 26 15 14 13 3 3 6 7 2 3 1 9 14 11 1 3 18 12 16 20 31 33 31 38 30 36 45 48
70 63 50 63 68 61 54 49 48 42 36 30 29 36 32 26 20 13 13 10 7 3 4 6 5 5 14 11 12 15 21 19 20 11 18 25 30 36 34 39 46 40 44
82 82 73 69 68 60 49 39 38 42 37 33 29 39 39 34 30 28 34 22 13 8 11 12 9 15 12 18 13 13 24 15 9 7 14 23 31 29 32 26 32 41 49
75 89 87 77 73 66 49 35 31 40 41 38 28 37 34 38 31 24 38 33 30 20 23 15 15 11 21 20 18 18 20 17 11 23 19 15 20 10 18 27 31 42 45
60 83 93 84 80 67 52 40 38 39 34 39 28 25 34 38 30 23 24 14 18 16 21 23 23 35 29 32 35 32 25 17 10 24 16 8 16 18 24 35 42 41 47
45 98 89 72 63 65 49 38 42 41 34 42 34 25 27 35 27 27 18 16 23 23 28 27 25 29 32 37 43 45 34 26 18 22 24 26 33 32 39 49 46 48 50
31 71 86 30 69 64 77 72 55 49 38 50 40 31 22 34 27 34 27 24 37 34 33 30 29 34 37 39 42 41 39 35 32 25 18 22 31 40 45 50 48 47 51
30 60 87 91 93 95 84 73 67 55 49 43 43 33 21 30 30 35 31 26 28 29 31 32 32 29 27 33 38 33 23 21 15 32 30 22 43 48 39 36 37 49 56
39 47 58 60 79 94 77 66 70 57 48 50 44 33 24 27 30 35 27 21 24 18 17 19 20 16 10 18 22 17 22 16 11 34 21 38 45 31 39 44 53 47 38
58 60 63 57 66 47 48 62 61 59 52 57 47 43 31 31 30 31 32 22 15 17 13 10 3 14 16 13 14 16 9 8 39 6 31 45 38 32 43 44 44 43 37
66 69 67 71 53 53 48 61 63 73 69 66 59 47 40 35 30 27 26 21 16 13 5 13 15 11 7 9 6 14 8 11 13 24 32 47 42 45 40 37 38 34 39
79 83 77 74 71 68 71 81 81 59 73 64 58 46 42 31 28 24 19 20 12 14 14 17 11 8 12 13 15 18 18 12 12 21 30 56 50 41 36 41 43 53 60
84 96 84 77 75 82 76 86 63 64 76 69 53 47 41 38 30 22 20 17 17 15 16 11 8 9 12 16 18 18 13 19 22 27 36 41 48 52 46 41 45 54 57
Wind_Direction_500mb
164 159 159 154 147 145 143 142 138 134 128 121 120 117 124 128 129 130 129 130 131 132 130 128 125 120 121 132 140 144 128 63 74 76 82 87 72 49 36 24 3 1 22
164 161 159 154 148 147 144 142 139 137 132 125 123 121 126 129 129 129 129 129 131 133 131 130 126 118 113 129 125 111 94 91 85 83 92 81 67 42 33 19 6 3 353
165 161 160 156 151 149 146 142 140 138 136 133 129 123 128 132 129 128 128 129 132 132 130 129 124 113 95 96 104 101 93 92 93 87 80 65 57 28 16 2 359 356 348
167 161 161 158 154 150 147 142 141 141 140 139 135 129 131 134 130 130 129 129 131 132 134 128 110 90 81 84 93 98 99 103 111 98 75 34 8 6 353 349 347 342 341
166 162 161 158 154 151 147 147 145 145 145 145 141 136 135 138 136 135 133 128 128 130 123 115 108 102 90 85 90 99 101 109 121 114 77 54 6 347 327 336 346 342 340
167 165 161 156 153 154 152 150 146 146 150 151 151 146 143 146 146 142 135 126 122 124 129 135 133 114 88 60 43 38 98 141 148 129 84 25 309 296 308 325 338 338 332
169 167 162 158 154 155 154 149 146 146 151 154 157 155 154 153 152 150 142 136 130 129 141 151 152 63 10 2 357 348 336 208 191 174 140 8 344 271 304 323 332 332 329
168 167 165 161 156 157 157 155 152 153 155 156 162 162 158 159 159 162 159 146 142 145 153 160 241 325 341 349 349 345 340 318 252 210 202 340 2 313 287 321 325 326 325
166 169 167 165 161 160 162 160 159 159 161 163 165 165 165 166 170 170 167 160 161 166 193 266 299 313 328 345 352 1 358 344 319 255 272 303 317 301 310 316 317 324 328
153 171 170 171 168 164 166 166 166 164 164 167 168 166 169 173 174 174 172 177 180 210 273 296 305 319 336 358 49 50 41 26 4 83 119 321 311 291 298 313 318 323 329
167 169 175 173 174 170 169 172 174 172 169 170 171 171 170 174 177 174 182 191 200 241 265 289 309 333 18 72 98 57 47 46 46 39 357 322 302 273 308 317 322 327 330
173 175 179 174 179 175 175 177 180 180 176 175 174 171 167 170 172 182 184 193 217 246 265 284 351 46 110 126 125 114 43 24 358 345 335 323 298 293 325 326 327 330 327
183 181 179 176 183 181 180 182 184 183 181 181 175 171 166 156 174 180 151 125 232 225 240 199 111 97 71 277 297 256 359 48 345 3 347 352 337 324 337 329 326 323 327
193 192 183 183 184 185 182 183 192 189 187 187 174 167 173 148 162 170 122 71 48 176 90 64 90 276 328 3 353 42 332 313 321 321 341 330 320 329 322 330 332 328 330
194 198 187 183 184 185 180 182 194 194 198 189 177 170 172 167 182 190 206 228 231 128 72 358 346 276 321 337 288 269 291 244 275 277 320 303 310 306 307 325 325 329 327
199 198 185 173 184 183 183 177 183 197 196 194 182 179 178 180 182 196 203 213 207 233 281 249 278 272 305 290 276 232 235 244 258 304 336 322 306 309 324 320 326 328 329
200 184 176 171 175 176 179 183 191 185 193 192 179 192 189 189 192 198 208 203 212 223 233 240 226 231 252 254 255 262 261 258 208 349 339 352 333 325 317 325 329 324 323
187 194 183 172 168 164 172 183 187 172 175 179 179 188 195 192 193 202 198 189 185 219 233 242 242 241 255 256 259 267 266 217 282 330 337 315 306 296 309 318 320 314 314
166 182 164 153 166 161 173 218 192 178 177 182 195 204 209 199 192 199 177 167 222 237 228 244 254 259 266 274 279 285 295 299 296 322 297 296 306 305 313 319 320 316 313
212 181 185 217 194 181 168 168 182 186 183 185 196 204 216 200 189 171 199 218 225 233 238 250 269 277 282 293 302 305 306 294 290 300 304 295 302 318 321 323 317 311 319
232 192 180 185 190 178 167 166 176 182 180 185 203 206 214 196 191 185 208 223 234 243 251 264 271 283 304 313 316 317 336 310 241 347 318 330 333 338 348 342 343 336 337
213 212 211 192 178 180 175 179 180 177 176 187 194 201 205 201 195 192 221 226 245 262 272 269 274 296 341 30 13 13 3 44 258 321 309 333 350 355 344 344 333 349 349
217 196 205 215 188 186 182 188 176 175 178 185 190 191 189 195 199 199 217 230 246 275 267 305 141 102 89 58 24 19 10 337 330 256 314 339 358 340 341 350 3 3 350
234 202 193 205 210 194 192 194 185 183 183 186 183 184 194 199 206 197 215 241 259 266 180 136 112 92 82 61 31 19 22 343 335 318 309 334 341 339 359 4 3 353 340
231 210 191 191 199 201 206 195 179 181 186 177 180 186 189 188 189 192 209 237 193 167 144 128 114 70 33 18 13 3 3 1 337 333 326 333 336 357 4 7 354 343 333
219 203 192 195 201 202 210 193 181 177 176 178 181 182 179 187 191 194 196 174 152 137 138 137 94 56 37 25 20 10 8 4 350 341 335 343 340 348 352 352 339 332 327
Wind_Speed_850mb
47 55 55 51 52 49 44 38 35 33 29 27 28 29 31 36 38 38 37 36 34 34 35 33 28 23 16 11 9 6 2 3 7 8 9 11 13 15 14 10 10 18 10
47 60 55 49 49 46 44 39 35 33 29 26 26 28 31 35 37 37 36 34 34 34 32 28 24 20 16 14 12 9 9 10 11 12 13 17 23 27 26 23 22 22 16
45 60 53 50 48 44 42 38 34 32 29 27 24 25 27 33 35 35 35 33 32 30 25 21 16 13 13 12 10 9 9 12 17 26 24 12 11 18 23 30 31 26 21
49 60 56 51 48 44 41 37 33 30 28 25 23 22 24 28 32 34 32 30 27 24 20 15 12 11 10 10 9 8 9 11 16 19 20 20 12 12 27 32 32 26 22
55 59 56 52 47 44 40 37 33 31 29 26 22 19 20 24 27 31 29 25 22 19 17 14 11 7 6 6 5 5 7 10 16 17 11 13 7 16 32 28 33 32 28
58 59 56 51 46 43 41 36 33 31 29 26 23 19 19 22 25 26 24 22 19 16 14 10 7 6 4 4 3 2 1 6 16 15 7 13 18 29 23 27 33 37 38
61 61 56 51 46 43 39 36 31 30 28 25 22 20 20 21 22 22 21 19 15 12 9 7 4 1 3 4 6 6 3 3 12 9 4 11 11 18 22 24 32 42 47
56 62 59 53 49 44 41 37 33 30 28 26 22 21 21 21 22 21 18 15 13 9 6 4 1 4 7 9 10 10 9 6 5 10 4 11 14 23 21 28 40 49 54
47 65 61 54 51 48 43 38 34 30 27 27 24 22 21 21 22 21 18 14 10 6 3 3 6 9 9 10 11 13 15 12 8 6 7 12 14 17 26 29 41 46 49
38 57 63 56 53 52 46 39 34 31 27 25 24 22 21 22 23 21 18 13 9 5 4 7 7 7 8 7 9 20 21 17 8 3 3 12 19 22 25 34 42 42 45
43 44 58 59 55 53 49 44 38 33 29 28 26 25 23 22 23 21 17 13 7 5 6 5 6 5 5 3 9 13 14 17 15 11 12 18 18 17 31 38 42 43 52
58 48 50 65 60 56 53 46 41 37 32 29 27 25 25 23 21 20 14 10 6 5 5 3 4 4 5 8 2 4 6 8 10 20 27 24 25 20 33 39 41 46 52
56 45 51 68 65 62 55 51 48 40 34 31 28 28 28 26 23 22 12 2 6 6 3 6 7 7 2 7 8 2 3 7 18 19 27 30 22 34 40 34 41 46 47
59 50 41 67 68 63 56 52 43 42 35 33 30 32 28 26 15 14 13 3 3 6 7 2 3 1 9 14 11 1 3 18 12 16 20 31 33 31 38 30 36 45 48
70 63 50 63 68 61 54 49 48 42 36 30 29 36 32 26 20 13 13 10 7 3 4 6 5 5 14 11 12 15 21 19 20 11 18 25 30 36 34 39 46 40 44
82 82 73 69 68 60 49 39 38 42 37 33 29 39 39 34 30 28 34 22 13 8 11 12 9 15 12 18 13 13 24 15 9 7 14 23 31 29 32 26 32 41 49
75 89 87 77 73 66 49 35 31 40 41 38 28 37 34 38 31 24 38 33 30 20 23 15 15 11 21 20 18 18 20 17 11 23 19 15 20 10 18 27 31 42 45
60 83 93 84 80 67 52 40 38 39 34 39 28 25 34 38 30 23 24 14 18 16 21 23 23 35 29 32 35 32 25 17 10 24 16 8 16 18 24 35 42 41 47
45 98 89 72 63 65 49 38 42 41 34 42 34 25 27 35 27 27 18 16 23 23 28 27 25 29 32 37 43 45 34 26 18 22 24 26 33 32 39 49 46 48 50
31 71 86 30 69 64 77 72 55 49 38 50 40 31 22 34 27 34 27 24 37 34 33 30 29 34 37 39 42 41 39 35 32 25 18 22 31 40 45 50 48 47 51
30 60 87 91 93 95 84 73 67 55 49 43 43 33 21 30 30 35 31 26 28 29 31 32 32 29 27 33 38 33 23 21 15 32 30 22 43 48 39 36 37 49 56
39 47 58 60 79 94 77 66 70 57 48 50 44 33 24 27 30 35 27 21 24 18 17 19 20 16 10 18 22 17 22 16 11 34 21 38 45 31 39 44 53 47 38
58 60 63 57 66 47 48 62 61 59 52 57 47 43 31 31 30 31 32 22 15 17 13 10 3 14 16 13 14 16 9 8 39 6 31 45 38 32 43 44 44 43 37
66 69 67 71 53 53 48 61 63 73 69 66 59 47 40 35 30 27 26 21 16 13 5 13 15 11 7 9 6 14 8 11 13 24 32 47 42 45 40 37 38 34 39
79 83 77 74 71 68 71 81 81 59 73 64 58 46 42 31 28 24 19 20 12 14 14 17 11 8 12 13 15 18 18 12 12 21 30 56 50 41 36 41 43 53 60
84 96 84 77 75 82 76 86 63 64 76 69 53 47 41 38 30 22 20 17 17 15 16 11 8 9 12 16 18 18 13 19 22 27 36 41 48 52 46 41 45 54 57
Wind_Direction_850mb
164 159 159 154 147 145 143 142 138 134 128 121 120 117 124 128 129 130 129 130 131 132 130 128 125 120 121 132 140 144 128 63 74 76 82 87 72 49 36 24 3 1 22
164 161 159 154 148 147 144 142 139 137 132 125 123 121 126 129 129 129 129 129 131 133 131 130 126 118 113 129 125 111 94 91 85 83 92 81 67 42 33 19 6 3 353
165 161 160 156 151 149 146 142 140 138 136 133 129 123 128 132 129 128 128 129 132 132 130 129 124 113 95 96 104 101 93 92 93 87 80 65 57 28 16 2 359 356 348
167 161 161 158 154 150 147 142 141 141 140 139 135 129 131 134 130 130 129 129 131 132 134 128 110 90 81 84 93 98 99 103 111 98 75 34 8 6 353 349 347 342 341
166 162 161 158 154 151 147 147 145 145 145 145 141 136 135 138 136 135 133 128 128 130 123 115 108 102 90 85 90 99 101 109 121 114 77 54 6 347 327 336 346 342 340
167 165 161 156 153 154 152 150 146 146 150 151 151 146 143 146 146 142 135 126 122 124 129 135 133 114 88 60 43 38 98 141 148 129 84 25 309 296 308 325 338 338 332
169 167 162 158 154 155 154 149 146 146 151 154 157 155 154 153 152 150 142 136 130 129 141 151 152 63 10 2 357 348 336 208 191 174 140 8 344 271 304 323 332 332 329
168 167 165 161 156 157 157 155 152 153 155 156 162 162 158 159 159 162 159 146 142 145 153 160 241 325 341 349 349 345 340 318 252 210 202 340 2 313 287 321 325 326 325
166 169 167 165 161 160 162 160 159 159 161 163 165 165 165 166 170 170 167 160 161 166 193 266 299 313 328 345 352 1 358 344 319 255 272 303 317 301 310 316 317 324 328
153 171 170 171 168 164 166 166 166 164 164 167 168 166 169 173 174 174 172 177 180 210 273 296 305 319 336 358 49 50 41 26 4 83 119 321 311 291 298 313 318 323 329
167 169 175 173 174 170 169 172 174 172 169 170 171 171 170 174 177 174 182 191 200 241 265 289 309 333 18 72 98 57 47 46 46 39 357 322 302 273 308 317 322 327 330
173 175 179 174 179 175 175 177 180 180 176 175 174 171 167 170 172 182 184 193 217 246 265 284 351 46 110 126 125 114 43 24 358 345 335 323 298 293 325 326 327 330 327
183 181 179 176 183 181 180 182 184 183 181 181 175 171 166 156 174 180 151 125 232 225 240 199 111 97 71 277 297 256 359 48 345 3 347 352 337 324 337 329 326 323 327
193 192 183 183 184 185 182 183 192 189 187 187 174 167 173 148 162 170 122 71 48 176 90 64 90 276 328 3 353 42 332 313 321 321 341 330 320 329 322 330 332 328 330
194 198 187 183 184 185 180 182 194 194 198 189 177 170 172 167 182 190 206 228 231 128 72 358 346 276 321 337 288 269 291 244 275 277 320 303 310 306 307 325 325 329 327
199 198 185 173 184 183 183 177 183 197 196 194 182 179 178 180 182 196 203 213 207 233 281 249 278 272 305 290 276 232 235 244 258 304 336 322 306 309 324 320 326 328 329
200 184 176 171 175 176 179 183 191 185 193 192 179 192 189 189 192 198 208 203 212 223 233 240 226 231 252 254 255 262 261 258 208 349 339 352 333 325 317 325 329 324 323
187 194 183 172 168 164 172 183 187 172 175 179 179 188 195 192 193 202 198 189 185 219 233 242 242 241 255 256 259 267 266 217 282 330 337 315 306 296 309 318 320 314 314
166 182 164 153 166 161 173 218 192 178 177 182 195 204 209 199 192 199 177 167 222 237 228 244 254 259 266 274 279 285 295 299 296 322 297 296 306 305 313 319 320 316 313
212 181 185 217 194 181 168 168 182 186 183 185 196 204 216 200 189 171 199 218 225 233 238 250 269 277 282 293 302 305 306 294 290 300 304 295 302 318 321 323 317 311 319
232 192 180 185 190 178 167 166 176 182 180 185 203 206 214 196 191 185 208 223 234 243 251 264 271 283 304 313 316 317 336 310 241 347 318 330 333 338 348 342 343 336 337
213 212 211 192 178 180 175 179 180 177 176 187 194 201 205 201 195 192 221 226 245 262 272 269 274 296 341 30 13 13 3 44 258 321 309 333 350 355 344 344 333 349 349
217 196 205 215 188 186 182 188 176 175 178 185 190 191 189 195 199 199 217 230 246 275 267 305 141 102 89 58 24 19 10 337 330 256 314 339 358 340 341 350 3 3 350
234 202 193 205 210 194 192 194 185 183 183 186 183 184 194 199 206 197 215 241 259 266 180 136 112 92 82 61 31 19 22 343 335 318 309 334 341 339 359 4 3 353 340
231 210 191 191 199 201 206 195 179 181 186 177 180 186 189 188 189 192 209 237 193 167 144 128 114 70 33 18 13 3 3 1 337 333 326 333 336 357 4 7 354 343 333
219 203 192 195 201 202 210 193 181 177 176 178 181 182 179 187 191 194 196 174 152 137 138 137 94 56 37 25 20 10 8 4 350 341 335 343 340 348 352 352 339 332 327